Location: Lake Lucerne
(45.5315°N, 88.8489°W)
Time: 05:22:20
(UTC-05:00)

Amateur Radio Satellites - All Passes

Search period start: 21 August 2017 04:52
Search period end: 22 August 2017 04:52
Location: Lake Lucerne, 45.5315°N, 88.8489°W

Satellite Date Start Highest point End Downlink Frequencies (MHz)
Time Altitude Azimuth
YUBILEINY 21 Aug 05:05:28 05:12:30 29° 279° (W) 05:19:31 435.215
DOVE 4 21 Aug 05:08:39 05:10:37 13° 87° (E) 05:12:33 437.250
NO-84 21 Aug 05:08:44 05:10:11 13° 360° (N) 05:11:39 435.350 FM
STARS 21 Aug 05:15:56 05:20:15 57° 72° (ENE) 05:24:34 437.465
PCSat 21 Aug 05:20:42 05:22:14 11° 24° (NNE) 05:23:47 145.827
ITAMSAT 1 21 Aug 05:37:27 05:42:05 34° 295° (WNW) 05:46:41 435.822/435.867
AO-7 21 Aug 05:41:44 05:49:47 56° 297° (WNW) 05:57:48 .
AO-85 21 Aug 05:45:13 05:49:02 51° 121° (ESE) 05:52:51 145.980
BEESAT 3 21 Aug 05:49:18 05:53:18 88° 304° (NW) 05:57:23 437.485
XW-2D 21 Aug 05:51:25 05:51:46 10° 88° (E) 05:52:07 145.860 - 145.880
XW-2B 21 Aug 06:01:06 06:02:56 13° 90° (E) 06:04:46 145.730 - 145.750
BEESAT 2 21 Aug 06:03:42 06:07:31 44° 119° (ESE) 06:11:24 435.950
CUTE-I 21 Aug 06:08:58 06:12:28 18° 90° (E) 06:15:56 437.470
KKS-1 21 Aug 06:16:11 06:19:04 17° 269° (W) 06:21:56 437.445
XW-2C 21 Aug 06:19:14 06:22:14 21° 94° (E) 06:25:13 145.795 - 145.815
XW-2F 21 Aug 06:30:58 06:34:17 27° 95° (E) 06:37:34 145.980 - 146.000
DOVE 4 21 Aug 06:44:19 06:48:56 69° 285° (WNW) 06:53:14 437.250
NO-84 21 Aug 06:46:01 06:48:24 22° 21° (NNE) 06:50:53 435.350 FM
STARS 21 Aug 06:54:18 06:56:56 15° 269° (W) 06:59:34 437.465
KAITUO 1B 21 Aug 06:55:30 06:59:08 41° 98° (E) 07:02:44 145.475/437.950
CUTE 1.7 + AOD 2 21 Aug 06:59:02 07:00:48 12° 88° (E) 07:02:35 437.475
PCSat 21 Aug 07:02:14 07:07:17 37° 48° (NE) 07:12:18 145.827
HO-68 21 Aug 07:02:17 07:07:34 22° 90° (E) 07:12:50 435.675
STRAND 1 21 Aug 07:03:06 07:08:04 54° 71° (ENE) 07:13:03 437.568
SO-50 21 Aug 07:04:06 07:08:15 34° 44° (NE) 07:12:26 436.795
LilacSat-2 21 Aug 07:18:39 07:22:31 73° 286° (WNW) 07:26:24 437.200
XW-2D 21 Aug 07:22:33 07:26:22 67° 286° (WNW) 07:30:12 145.860 - 145.880
AO-85 21 Aug 07:26:42 07:29:41 20° 321° (NW) 07:32:42 145.980
NUDT-PHONESAT 21 Aug 07:27:46 07:31:32 82° 284° (WNW) 07:35:17 437.300
BEESAT 3 21 Aug 07:29:03 07:31:29 15° 325° (NW) 07:33:56 437.485
XW-2B 21 Aug 07:33:40 07:37:25 51° 287° (WNW) 07:41:10 145.730 - 145.750
AO-7 21 Aug 07:36:22 07:40:47 16° 320° (NW) 07:45:11 .
BEESAT 2 21 Aug 07:42:07 07:45:27 24° 319° (NW) 07:48:49 435.950
SEEDS 21 Aug 07:44:58 07:48:26 24° 94° (E) 07:51:53 437.485
CUTE-I 21 Aug 07:47:43 07:53:00 67° 288° (WNW) 07:58:16 437.470
XW-2C 21 Aug 07:53:03 07:56:27 31° 291° (WNW) 07:59:53 145.795 - 145.815
FO-29 21 Aug 07:55:56 08:01:41 26° 60° (ENE) 08:07:00 435.910
XW-2F 21 Aug 08:05:10 08:08:19 25° 292° (WNW) 08:11:27 145.980 - 146.000
NO-84 21 Aug 08:23:01 08:26:00 65° 219° (SW) 08:29:13 435.350 FM
XW-2A 21 Aug 08:24:50 08:28:10 51° 100° (E) 08:31:29 145.665 - 145.685
AAUSAT CUBESAT 2 21 Aug 08:29:17 08:33:04 32° 96° (E) 08:36:49 437.432
KAITUO 1B 21 Aug 08:30:21 08:32:49 17° 295° (WNW) 08:35:18 145.475/437.950
CUTE 1.7 + AOD 2 21 Aug 08:32:49 08:37:06 68° 285° (WNW) 08:41:22 437.475
UWE-3 21 Aug 08:39:13 08:43:16 43° 98° (E) 08:47:25 435.000/436.395/437.385
STRAND 1 21 Aug 08:43:48 08:47:34 20° 268° (W) 08:51:22 437.568
SO-50 21 Aug 08:44:33 08:48:44 36° 242° (WSW) 08:52:56 436.795
PCSat 21 Aug 08:45:41 08:50:43 39° 247° (WSW) 08:55:42 145.827
CUBEBUG 2 21 Aug 08:47:09 08:51:22 90° 139° (SE) 08:55:39 437.445
Oscar 11 21 Aug 08:48:27 08:51:47 21° 93° (E) 08:55:05 .
HO-68 21 Aug 08:48:51 08:56:02 78° 289° (WNW) 09:03:10 435.675
Tancredo 1 21 Aug 08:54:13 08:56:15 17° 137° (SE) 08:58:18 437.200
O/OREOS (USA 219) 21 Aug 09:09:25 09:13:02 25° 103° (ESE) 09:16:42 437.305
ZACube-1 21 Aug 09:18:04 09:22:19 64° 101° (E) 09:26:39 437.345
PRISM 21 Aug 09:20:07 09:23:33 25° 66° (ENE) 09:27:00 437.425
SEEDS 21 Aug 09:20:19 09:24:10 34° 291° (WNW) 09:28:01 437.485
UNISAT 6 21 Aug 09:20:55 09:24:52 36° 69° (ENE) 09:28:47 437.425
CUTE-I 21 Aug 09:30:31 09:32:04 11° 307° (NW) 09:33:36 437.470
DELFI C3 21 Aug 09:32:48 09:35:01 14° 90° (E) 09:37:12 145.870
FO-29 21 Aug 09:38:37 09:46:12 75° 257° (WSW) 09:53:03 435.910
AO-73 21 Aug 09:39:03 09:43:21 86° 279° (W) 09:47:42 145.935
TIGRISAT 21 Aug 09:55:29 09:59:48 76° 74° (ENE) 10:04:04 435.000
XW-2A 21 Aug 09:59:20 10:00:28 11° 297° (WNW) 10:01:36 145.665 - 145.685
AAUSAT CUBESAT 2 21 Aug 10:04:57 10:08:23 25° 293° (WNW) 10:11:48 437.432
EO-88 21 Aug 10:07:43 10:10:29 20° 94° (E) 10:13:14 145.990 - 145.960
ISS 21 Aug 10:08:06 10:10:54 26° 139° (SE) 10:13:43 437.550
RS-15 21 Aug 10:09:07 10:19:05 31° 103° (ESE) 10:29:06 29.354- 29.394
M-CUBED/EXP-1 PRIME 21 Aug 10:12:39 10:16:20 24° 59° (ENE) 10:20:06 437.505
nSIGHT-1 21 Aug 10:15:46 10:18:43 32° 141° (SE) 10:21:41 .
UWE-3 21 Aug 10:16:24 10:19:28 20° 295° (WNW) 10:22:33 435.000/436.395/437.385
Oscar 11 21 Aug 10:23:59 10:28:04 40° 290° (WNW) 10:32:08 .
CUBEBUG 2 21 Aug 10:26:43 10:27:20 10° 301° (WNW) 10:27:57 437.445
Tancredo 1 21 Aug 10:28:16 10:31:10 65° 335° (NNW) 10:34:04 437.200
HO-68 21 Aug 10:38:07 10:42:40 18° 310° (NW) 10:47:14 435.675
DUCHIFAT 1 21 Aug 10:40:09 10:41:46 12° 60° (ENE) 10:43:24 145.980
Max Valier Satellite 21 Aug 10:47:29 10:51:12 79° 102° (ESE) 10:54:54 145.860
O/OREOS (USA 219) 21 Aug 10:48:07 10:52:16 37° 302° (WNW) 10:56:27 437.305
PRISM 21 Aug 10:54:59 10:58:42 31° 263° (W) 11:02:27 437.425
ZACube-1 21 Aug 10:55:47 10:58:09 15° 298° (WNW) 11:00:31 437.345
UNISAT 6 21 Aug 10:58:14 11:01:40 23° 266° (W) 11:05:06 437.425
DELFI C3 21 Aug 11:06:12 11:10:04 50° 288° (WNW) 11:13:54 145.870
AIST 2D 21 Aug 11:09:10 11:12:35 60° 74° (ENE) 11:16:03 435.315
AO-73 21 Aug 11:18:18 11:18:53 10° 301° (WNW) 11:19:30 145.935
NANOSAT C BR1 21 Aug 11:22:50 11:26:38 35° 69° (ENE) 11:30:27 145.865
POLYITAN 1 21 Aug 11:27:45 11:31:44 44° 71° (ENE) 11:35:43 437.675
FO-29 21 Aug 11:28:16 11:32:05 15° 274° (W) 11:35:45 435.910
ESTCUBE 1 21 Aug 11:29:00 11:32:11 19° 91° (E) 11:35:22 437.505/2401.250
TIGRISAT 21 Aug 11:35:53 11:37:00 11° 272° (W) 11:38:07 435.000
LO-87 21 Aug 11:35:54 11:39:01 28° 96° (E) 11:42:06 145.935 - 145.965
EO-88 21 Aug 11:40:57 11:44:12 30° 290° (WNW) 11:47:27 145.990 - 145.960
QB50P2 21 Aug 11:42:41 11:46:52 70° 74° (ENE) 11:51:04 145.880/145.840
EO-79 21 Aug 11:43:15 11:47:24 65° 73° (ENE) 11:51:34 145.935-145.965
ISS 21 Aug 11:43:59 11:47:13 55° 337° (NNW) 11:50:28 437.550
M-CUBED/EXP-1 PRIME 21 Aug 11:46:07 11:50:27 45° 256° (WSW) 11:54:57 437.505
nSIGHT-1 21 Aug 11:51:51 11:55:01 47° 339° (NNW) 11:58:13 .
Gurwin Techsat 1B 21 Aug 12:00:15 12:01:34 11° 53° (NE) 12:02:53 435.225
Tancredo 1 21 Aug 12:04:14 12:06:43 24° 354° (N) 12:09:11 437.200
BUGSAT 1 21 Aug 12:11:33 12:15:06 30° 68° (ENE) 12:18:39 437.445
DUCHIFAT 1 21 Aug 12:12:41 12:16:51 76° 257° (WSW) 12:21:02 145.980
RS-15 21 Aug 12:17:56 12:30:15 85° 306° (NW) 12:42:40 29.354- 29.394
Oscar 19 21 Aug 12:19:26 12:23:19 22° 61° (ENE) 12:27:15 437.125/150
BEESAT 3 21 Aug 12:27:19 12:30:02 17° 37° (NE) 12:32:44 437.485
AO-85 21 Aug 12:34:05 12:36:45 16° 36° (NE) 12:39:30 145.980
BEESAT 2 21 Aug 12:43:00 12:44:28 12° 30° (NNE) 12:45:56 435.950
NANOSAT C BR1 21 Aug 12:59:08 13:02:26 22° 266° (W) 13:05:44 145.865
AO-7 21 Aug 13:02:09 13:07:10 18° 42° (NE) 13:12:10 .
POLYITAN 1 21 Aug 13:04:50 13:07:44 18° 268° (W) 13:10:38 437.675
ESTCUBE 1 21 Aug 13:04:51 13:09:15 49° 289° (WNW) 13:13:38 437.505/2401.250
VELOX 1 21 Aug 13:09:18 13:13:28 40° 98° (E) 13:17:37 145.980
LO-87 21 Aug 13:09:39 13:12:17 20° 293° (WNW) 13:14:54 145.935 - 145.965
DX 1 21 Aug 13:11:04 13:12:53 12° 89° (E) 13:14:41 434.975-435.025
SPROUT 21 Aug 13:13:01 13:17:12 56° 100° (E) 13:21:22 437.525
ISS 21 Aug 13:21:17 13:24:09 27° 357° (N) 13:27:01 437.550
QB50P2 21 Aug 13:21:44 13:23:08 11° 271° (W) 13:24:33 145.880/145.840
EO-79 21 Aug 13:21:48 13:23:35 12° 271° (W) 13:25:22 145.935-145.965
nSIGHT-1 21 Aug 13:29:04 13:31:54 26° 359° (N) 13:34:43 .
Gurwin Techsat 1B 21 Aug 13:35:15 13:40:30 65° 72° (ENE) 13:45:48 435.225
Tancredo 1 21 Aug 13:39:49 13:42:27 29° 13° (NNE) 13:45:04 437.200
ITAMSAT 1 21 Aug 13:43:18 13:44:32 11° 53° (NE) 13:45:46 435.822/435.867
BUGSAT 1 21 Aug 13:47:04 13:50:27 25° 265° (W) 13:53:50 437.445
50 SAT 21 Aug 13:51:38 13:54:53 42° 99° (E) 13:58:05 437.505
Oscar 19 21 Aug 13:57:13 14:02:15 55° 259° (W) 14:07:21 437.125/150
BEESAT 3 21 Aug 14:04:05 14:08:05 74° 237° (WSW) 14:12:00 437.485
AO-85 21 Aug 14:13:25 14:17:42 87° 56° (NE) 14:22:19 145.980
BEESAT 2 21 Aug 14:19:06 14:23:07 55° 51° (NE) 14:27:04 435.950
YUBILEINY 21 Aug 14:20:05 14:24:25 15° 73° (ENE) 14:28:45 435.215
UKube-1 21 Aug 14:22:25 14:26:33 45° 99° (E) 14:30:41 .
RS-15 21 Aug 14:33:27 14:44:45 39° 334° (NNW) 14:55:56 29.354- 29.394
DX 1 21 Aug 14:45:12 14:49:33 70° 287° (WNW) 14:53:51 434.975-435.025
VELOX 1 21 Aug 14:46:14 14:49:41 23° 296° (WNW) 14:53:07 145.980
SPROUT 21 Aug 14:50:04 14:52:40 16° 298° (WNW) 14:55:16 437.525
AO-7 21 Aug 14:50:09 14:58:21 63° 64° (ENE) 15:06:34 .
ISS 21 Aug 14:58:04 15:01:11 38° 17° (NNE) 15:04:16 437.550
nSIGHT-1 21 Aug 15:05:40 15:08:48 42° 19° (NNE) 15:11:55 .
BEESAT 21 Aug 15:05:56 15:08:57 16° 91° (E) 15:11:57 436.000
Tancredo 1 21 Aug 15:14:55 15:17:49 65° 212° (SSW) 15:20:41 437.200
Gurwin Techsat 1B 21 Aug 15:17:19 15:20:55 18° 270° (W) 15:24:32 435.225
ITAMSAT 1 21 Aug 15:17:53 15:23:02 66° 72° (ENE) 15:28:12 435.822/435.867
50 SAT 21 Aug 15:25:34 15:27:11 13° 297° (WNW) 15:28:47 437.505
ITUPSAT 1 21 Aug 15:39:45 15:44:05 34° 97° (E) 15:48:24 437.325
AO-85 21 Aug 15:55:55 15:57:34 12° 250° (WSW) 15:59:15 145.980
BEESAT 2 21 Aug 15:57:52 16:00:26 16° 249° (WSW) 16:02:59 435.950
UKube-1 21 Aug 15:59:09 16:02:17 20° 297° (WNW) 16:05:24 .
YUBILEINY 21 Aug 16:10:50 16:19:33 72° 94° (E) 16:28:16 435.215
DOVE 4 21 Aug 16:14:42 16:18:35 22° 63° (ENE) 16:22:25 437.250
MOZHAYETS 4 21 Aug 16:20:07 16:24:46 76° 102° (ESE) 16:29:23
ISS 21 Aug 16:34:34 16:37:44 47° 216° (SW) 16:40:52 437.550
nSIGHT-1 21 Aug 16:42:07 16:45:11 38° 217° (SW) 16:48:12 .
CUBESAT XI-V 21 Aug 16:42:08 16:46:14 28° 94° (E) 16:50:18 437.345
BEESAT 21 Aug 16:42:25 16:47:07 61° 288° (WNW) 16:51:48 436.000
AO-7 21 Aug 16:44:14 16:51:33 33° 264° (W) 16:58:56 .
RS-15 21 Aug 16:51:09 17:01:44 31° 9° (N) 17:12:00 29.354- 29.394
ITAMSAT 1 21 Aug 16:59:35 17:02:58 17° 269° (W) 17:06:22 435.822/435.867
XW-2C 21 Aug 17:03:23 17:05:36 15° 64° (ENE) 17:07:50 145.795 - 145.815
XW-2F 21 Aug 17:14:24 17:17:03 19° 65° (ENE) 17:19:43 145.980 - 146.000
ITUPSAT 1 21 Aug 17:17:41 17:21:50 30° 294° (WNW) 17:25:59 437.325
CUTE-I 21 Aug 17:32:25 17:37:17 36° 66° (ENE) 17:42:08 437.470
HO-68 21 Aug 17:34:08 17:39:25 23° 53° (NE) 17:44:41 435.675
KAITUO 1B 21 Aug 17:37:40 17:40:49 26° 68° (ENE) 17:43:59 145.475/437.950
O/OREOS (USA 219) 21 Aug 17:38:53 17:40:24 11° 44° (NE) 17:41:54 437.305
DOVE 4 21 Aug 17:50:40 17:55:52 59° 260° (W) 18:00:57 437.250
CUTE 1.7 + AOD 2 21 Aug 17:54:14 17:56:04 13° 60° (ENE) 17:57:55 437.475
MOZHAYETS 4 21 Aug 17:58:54 18:01:19 14° 301° (WNW) 18:03:45
LilacSat-2 21 Aug 18:02:12 18:05:57 73° 75° (ENE) 18:09:46 437.200
KKS-1 21 Aug 18:02:41 18:07:09 79° 103° (ESE) 18:11:34 437.445
XW-2D 21 Aug 18:05:24 18:09:08 78° 77° (ENE) 18:12:57 145.860 - 145.880
NUDT-PHONESAT 21 Aug 18:08:40 18:12:15 59° 74° (ENE) 18:15:54 437.300
YUBILEINY 21 Aug 18:09:53 18:17:11 29° 296° (WNW) 18:24:31 435.215
CUBEBUG 2 21 Aug 18:14:21 18:15:22 11° 60° (ENE) 18:16:23 437.445
XW-2B 21 Aug 18:16:29 18:20:14 81° 257° (WSW) 18:24:03 145.730 - 145.750
CUBESAT XI-V 21 Aug 18:19:21 18:23:37 34° 292° (WNW) 18:27:51 437.345
XW-2C 21 Aug 18:35:49 18:39:25 45° 261° (W) 18:43:05 145.795 - 145.815
SEEDS 21 Aug 18:38:48 18:42:04 22° 66° (ENE) 18:45:22 437.485
STARS 21 Aug 18:38:59 18:43:23 81° 105° (ESE) 18:47:43 437.465
XW-2F 21 Aug 18:47:29 18:50:56 35° 263° (W) 18:54:26 145.980 - 146.000
XW-2A 21 Aug 18:58:24 19:01:06 24° 69° (ENE) 19:03:51 145.665 - 145.685
AO-73 21 Aug 19:04:20 19:04:59 10° 59° (ENE) 19:05:38 145.935
RS-15 21 Aug 19:05:42 19:17:41 56° 41° (NE) 19:29:01 29.354- 29.394
KAITUO 1B 21 Aug 19:11:46 19:14:46 23° 266° (W) 19:17:50 145.475/437.950
CUTE-I 21 Aug 19:12:30 19:17:19 34° 264° (W) 19:22:09 437.470
STRAND 1 21 Aug 19:12:34 19:15:32 15° 89° (E) 19:18:28 437.568
O/OREOS (USA 219) 21 Aug 19:16:07 19:20:39 72° 64° (ENE) 19:25:13 437.305
HO-68 21 Aug 19:19:10 19:26:20 85° 253° (WSW) 19:33:33 435.675
AAUSAT CUBESAT 2 21 Aug 19:21:21 19:24:55 28° 68° (ENE) 19:28:32 437.432
CUTE 1.7 + AOD 2 21 Aug 19:27:04 19:31:18 75° 258° (WSW) 19:35:35 437.475
UWE-3 21 Aug 19:38:14 19:42:13 44° 72° (ENE) 19:46:10 435.000/436.395/437.385
KKS-1 21 Aug 19:41:04 19:43:04 13° 301° (WNW) 19:45:05 437.445
Oscar 11 21 Aug 19:45:26 19:48:44 22° 65° (ENE) 19:52:03 .
NUDT-PHONESAT 21 Aug 19:45:48 19:46:32 10° 271° (W) 19:47:15 437.300
CUBEBUG 2 21 Aug 19:47:06 19:51:22 85° 258° (WSW) 19:55:34 437.445
SEEDS 21 Aug 20:13:38 20:17:32 37° 263° (W) 20:21:30 437.485
ZACube-1 21 Aug 20:15:49 20:19:54 63° 74° (ENE) 20:24:01 437.345
STARS 21 Aug 20:17:15 20:19:05 12° 301° (WNW) 20:20:54 437.465
DELFI C3 21 Aug 20:21:00 20:22:43 12° 61° (ENE) 20:24:25 145.870
XW-2A 21 Aug 20:31:16 20:33:49 20° 266° (W) 20:36:22 145.665 - 145.685
AO-73 21 Aug 20:36:26 20:40:33 87° 257° (WSW) 20:44:43 145.935
EO-88 21 Aug 20:48:35 20:50:20 13° 63° (ENE) 20:52:06 145.990 - 145.960
STRAND 1 21 Aug 20:50:09 20:55:14 72° 288° (WNW) 21:00:19 437.568
FO-29 21 Aug 20:50:23 20:51:09 10° 83° (E) 20:51:53 435.910
AAUSAT CUBESAT 2 21 Aug 20:56:45 21:00:20 27° 265° (W) 21:03:57 437.432
O/OREOS (USA 219) 21 Aug 20:57:23 20:59:27 13° 262° (W) 21:01:31 437.305
HO-68 21 Aug 21:10:51 21:15:04 16° 273° (W) 21:19:19 435.675
UWE-3 21 Aug 21:16:08 21:18:55 17° 268° (W) 21:21:41 435.000/436.395/437.385
RS-15 21 Aug 21:18:45 21:30:17 56° 247° (WSW) 21:41:13 29.354- 29.394
Oscar 11 21 Aug 21:20:35 21:24:37 39° 262° (W) 21:28:42 .
Max Valier Satellite 21 Aug 21:28:11 21:31:40 45° 72° (ENE) 21:35:10 145.860
TIGRISAT 21 Aug 21:46:06 21:48:05 13° 89° (E) 21:50:05 435.000
PCSat 21 Aug 21:47:39 21:51:22 19° 106° (ESE) 21:55:07 145.827
DELFI C3 21 Aug 21:52:58 21:56:56 68° 258° (WSW) 22:00:57 145.870
ZACube-1 21 Aug 21:54:56 21:56:38 12° 271° (W) 21:58:19 437.345
LO-87 21 Aug 22:14:32 22:16:59 18° 66° (ENE) 22:19:27 145.935 - 145.965
EO-88 21 Aug 22:20:02 22:23:35 50° 260° (W) 22:27:10 145.990 - 145.960
ESTCUBE 1 21 Aug 22:30:31 22:34:03 23° 64° (ENE) 22:37:35 437.505/2401.250
FO-29 21 Aug 22:31:42 22:37:23 83° 103° (ESE) 22:42:36 435.910
STRAND 1 21 Aug 22:31:58 22:33:31 11° 306° (NW) 22:35:05 437.568
PRISM 21 Aug 22:33:45 22:37:20 28° 96° (E) 22:40:53 437.425
UNISAT 6 21 Aug 22:46:05 22:50:21 59° 101° (E) 22:54:41 437.425
SO-50 21 Aug 23:00:25 23:04:38 41° 119° (ESE) 23:08:52 436.795
Max Valier Satellite 21 Aug 23:03:57 23:05:45 13° 269° (W) 23:07:33 145.860
TIGRISAT 21 Aug 23:20:55 23:25:12 65° 286° (WNW) 23:29:31 435.000
M-CUBED/EXP-1 PRIME 21 Aug 23:25:44 23:26:15 10° 91° (E) 23:26:46 437.505
PCSat 21 Aug 23:28:48 23:34:12 70° 304° (NW) 23:39:39 145.827
RS-15 21 Aug 23:36:56 23:39:35 11° 270° (W) 23:42:13 29.354- 29.394
LO-87 21 Aug 23:46:54 23:50:11 33° 262° (W) 23:53:29 145.935 - 145.965
DUCHIFAT 1 21 Aug 23:55:39 23:57:54 14° 90° (E) 00:00:10 145.980
AIST 2D 22 Aug 00:04:51 00:08:21 54° 100° (E) 00:11:51 435.315
ESTCUBE 1 22 Aug 00:06:20 00:10:35 41° 262° (W) 00:14:55 437.505/2401.250
SPROUT 22 Aug 00:08:03 00:12:12 55° 73° (ENE) 00:16:23 437.525
VELOX 1 22 Aug 00:08:15 00:12:31 47° 70° (ENE) 00:16:48 145.980
DX 1 22 Aug 00:08:23 00:11:03 16° 61° (ENE) 00:13:44 434.975-435.025
PRISM 22 Aug 00:09:02 00:12:32 27° 293° (WNW) 00:16:02 437.425
FO-29 22 Aug 00:18:22 00:21:38 16° 306° (NW) 00:24:47 435.910
UNISAT 6 22 Aug 00:24:03 00:26:38 16° 298° (WNW) 00:29:16 437.425
50 SAT 22 Aug 00:24:50 00:27:34 22° 68° (ENE) 00:30:17 437.505
NANOSAT C BR1 22 Aug 00:39:53 00:43:57 47° 99° (E) 00:47:59 145.865
SO-50 22 Aug 00:41:12 00:45:11 30° 317° (NW) 00:49:12 436.795
POLYITAN 1 22 Aug 00:45:33 00:49:43 60° 101° (E) 00:53:53 437.675
M-CUBED/EXP-1 PRIME 22 Aug 00:56:55 01:01:21 83° 287° (WNW) 01:05:25 437.505
QB50P2 22 Aug 01:00:45 01:04:59 84° 285° (WNW) 01:09:12 145.880/145.840
EO-79 22 Aug 01:01:03 01:05:16 89° 96° (E) 01:09:29 145.935-145.965
PCSat 22 Aug 01:15:09 01:18:37 17° 326° (NW) 01:22:06 145.827
NO-84 22 Aug 01:18:29 01:21:12 36° 137° (SE) 01:23:51 435.350 FM
UKube-1 22 Aug 01:18:35 01:22:46 51° 71° (ENE) 01:26:59 .
BUGSAT 1 22 Aug 01:25:37 01:29:21 35° 98° (E) 01:33:04 437.445
DUCHIFAT 1 22 Aug 01:29:49 01:33:55 56° 287° (WNW) 01:38:00 145.980
AIST 2D 22 Aug 01:39:45 01:41:06 12° 297° (WNW) 01:42:28 435.315
DX 1 22 Aug 01:42:26 01:46:46 61° 259° (W) 01:51:08 434.975-435.025
VELOX 1 22 Aug 01:46:01 01:49:12 19° 268° (W) 01:52:23 145.980
SPROUT 22 Aug 01:46:02 01:48:27 15° 270° (W) 01:50:53 437.525
Gurwin Techsat 1B 22 Aug 01:49:54 01:53:56 21° 92° (E) 01:57:55 435.225
MOZHAYETS 4 22 Aug 01:50:10 01:51:57 12° 58° (ENE) 01:53:44
50 SAT 22 Aug 01:57:22 02:00:08 23° 264° (W) 02:02:56 437.505
Oscar 19 22 Aug 02:06:21 02:11:19 43° 98° (E) 02:16:16 437.125/150
BEESAT 22 Aug 02:14:06 02:17:58 26° 64° (ENE) 02:21:52 436.000
NANOSAT C BR1 22 Aug 02:16:27 02:19:19 18° 297° (WNW) 02:22:11 145.865
YUBILEINY 22 Aug 02:18:25 02:26:30 40° 70° (ENE) 02:34:31 435.215
POLYITAN 1 22 Aug 02:22:40 02:25:02 15° 298° (WNW) 02:27:24 437.675
M-CUBED/EXP-1 PRIME 22 Aug 02:33:24 02:34:56 12° 309° (NW) 02:36:25 437.505
EO-79 22 Aug 02:39:30 02:40:21 11° 301° (WNW) 02:41:12 145.935-145.965
ITUPSAT 1 22 Aug 02:48:23 02:52:58 51° 70° (ENE) 02:57:35 437.325
AO-7 22 Aug 02:51:18 02:55:52 15° 87° (E) 03:00:22 .
NO-84 22 Aug 02:56:07 02:58:37 27° 335° (NNW) 03:01:06 435.350 FM
UKube-1 22 Aug 02:56:17 02:59:05 17° 268° (W) 03:01:54 .
BUGSAT 1 22 Aug 03:01:27 03:04:30 21° 295° (WNW) 03:07:33 437.445
MOZHAYETS 4 22 Aug 03:23:51 03:28:24 88° 259° (W) 03:33:00
Gurwin Techsat 1B 22 Aug 03:29:01 03:34:13 56° 290° (WNW) 03:39:23 435.225
KKS-1 22 Aug 03:29:15 03:31:02 12° 58° (ENE) 03:32:50 437.445
ITAMSAT 1 22 Aug 03:29:22 03:33:01 19° 91° (E) 03:36:38 435.822/435.867
Oscar 19 22 Aug 03:46:05 03:50:26 28° 296° (WNW) 03:54:47 437.125/150
CUBESAT XI-V 22 Aug 03:47:18 03:51:32 36° 68° (ENE) 03:55:49 437.345
BEESAT 22 Aug 03:51:05 03:55:32 40° 261° (W) 04:00:02 436.000
STARS 22 Aug 04:04:27 04:06:00 12° 58° (ENE) 04:07:35 437.465
YUBILEINY 22 Aug 04:15:13 04:23:30 51° 271° (W) 04:31:44 435.215
ITUPSAT 1 22 Aug 04:27:39 04:31:04 20° 268° (W) 04:34:32 437.325
AO-85 22 Aug 04:32:20 04:34:16 13° 111° (ESE) 04:36:11 145.980
NO-84 22 Aug 04:35:18 04:36:45 13° 357° (N) 04:38:14 435.350 FM
